CW5039 Weather Reports


Display with metric or nautical units.
time (UTC)temp
F
wind
direction
speed
MPH
gust
MPH
rain 1hr
in
rain 24hr
in
rain mn
in
humidity
%
barometer
mb
20260903084905 57 314 10.0 12.0 0.00 0.02 0.02 92 1016.7
20260903083904 56 314 6.0 10.0 0.00 0.02 0.02 92 1016.7
20260903082420 57 335 5.0 6.0 0.00 0.02 0.02 91 1016.8
20260903081405 57 334 6.0 12.0 0.00 0.02 0.02 92 1016.8
20260903080905 57 326 7.0 12.0 0.01 0.02 0.02 92 1016.8
20260903080405 57 322 10.0 13.0 0.01 0.02 0.02 91 1016.8
20260903075905 57 328 7.0 10.0 0.01 0.02 0.02 91 1016.7
20260903074405 57 314 10.0 14.0 0.01 0.02 0.02 91 1016.7
20260903073904 57 312 10.0 12.0 0.01 0.02 0.02 91 1016.7
20260903073404 57 323 9.0 12.0 0.01 0.02 0.02 91 1016.7
20260903071405 57 316 6.0 10.0 0.01 0.02 0.02 91 1016.7
20260903063905 57 314 10.0 15.0 0.00 0.02 0.02 91 1016.6
20260903063404 57 306 8.0 12.0 0.00 0.02 0.02 91 1016.6
20260903062904 57 320 9.0 13.0 0.00 0.02 0.02 91 1016.6
20260903061904 57 330 10.0 13.0 0.00 0.02 0.02 91 1016.5
20260903061404 56 327 8.0 9.0 0.00 0.02 0.02 91 1016.5
20260903060905 56 325 7.0 10.0 0.00 0.02 0.02 91 1016.5
20260903060405 56 344 6.0 9.0 0.00 0.02 0.02 90 1016.5
20260903054405 56 16 6.0 6.0 0.00 0.02 0.02 90 1016.8
20260903053905 56 29 4.0 6.0 0.00 0.02 0.02 90 1016.8
20260903053404 56 29 3.0 5.0 0.01 0.02 0.02 90 1016.9
20260903052905 56 28 4.0 5.0 0.01 0.02 0.02 90 1016.8
20260903052404 56 5 3.0 5.0 0.02 0.02 0.02 89 1016.8
20260903051404 56 5 3.0 3.0 0.02 0.02 0.02 89 1016.8
20260903050405 56 5 3.0 5.0 0.02 0.02 0.02 89 1016.8
20260903045904 56 355 4.0 5.0 0.02 0.02 0.02 88 1016.8
20260903045405 56 356 6.0 9.0 0.02 0.02 0.02 88 1016.9
20260903044904 56 344 6.0 6.0 0.02 0.02 0.02 87 1017.0
20260903043905 57 312 9.0 12.0 0.02 0.02 0.02 86 1017.2
20260903043404 57 311 10.0 14.0 0.01 0.01 0.01 84 1017.3
20260903042906 58 299 14.0 21.0 0.01 0.01 0.01 82 1017.3
20260903042405 58 297 10.0 16.0 0.00 0.00 0.00 80 1017.3
20260903040905 60 299 12.0 14.0 0.00 0.00 0.00 76 1017.3
20260903040405 60 311 9.0 13.0 0.00 0.00 0.00 75 1017.2
20260903034904 60 301 10.0 17.0 0.00 0.00 0.00 74 1017.3
20260903034405 60 285 7.0 12.0 0.00 0.00 0.00 73 1017.4
20260903033404 60 288 14.0 20.0 0.00 0.00 0.00 71 1017.5
20260903032905 60 281 12.0 18.0 0.00 0.00 0.00 71 1017.6
20260903031905 60 286 17.0 22.0 0.00 0.00 0.00 69 1017.6
20260903030404 61 282 16.0 20.0 0.00 0.00 0.00 70 1017.6
20260903025404 62 280 15.0 20.0 0.00 0.00 0.00 70 1017.5
20260903024905 62 278 14.0 20.0 0.00 0.00 0.00 71 1017.6
20260903024404 62 292 16.0 21.0 0.00 0.00 0.00 69 1017.6
20260903022404 62 281 18.0 24.0 0.00 0.00 0.00 67 1017.7
20260903020404 63 283 19.0 23.0 0.00 0.00 0.00 69 1017.7
20260903014406 63 279 18.0 23.0 0.00 0.00 0.00 70 1017.9
20260903013405 62 277 17.0 21.0 0.00 0.00 0.00 71 1018.0
20260903011904 63 283 14.0 18.0 0.00 0.00 0.00 68 1018.2
20260903010906 62 274 14.0 18.0 0.00 0.00 0.00 70 1018.3
20260903010408 62 268 14.0 18.0 0.00 0.00 0.00 72 1018.4
20260903005905 62 276 16.0 21.0 0.00 0.00 0.00 71 1018.4
20260903005405 63 279 15.0 20.0 0.00 0.00 0.00 69 1018.6
20260903004405 64 273 14.0 20.0 0.00 0.00 0.00 71 1018.7
20260903003404 63 287 13.0 16.0 0.00 0.00 0.00 72 1018.8
20260903002405 63 266 14.0 18.0 0.00 0.00 0.00 70 1018.9
20260902234904 62 274 13.0 18.0 0.00 0.00 0.00 72 1019.1
20260902231905 63 276 12.0 17.0 0.00 0.00 0.00 70 1019.3
20260902230405 62 290 13.0 18.0 0.00 0.00 0.00 72 1019.3
20260902224904 62 259 12.0 17.0 0.00 0.00 0.00 72 1019.3
20260902224405 63 267 15.0 17.0 0.00 0.00 0.00 76 1019.3
20260902223904 62 278 10.0 15.0 0.00 0.00 0.00 75 1019.3
20260902222904 62 264 14.0 17.0 0.00 0.00 0.00 76 1019.4
20260902221904 61 288 15.0 20.0 0.00 0.00 0.00 77 1019.4
20260902221404 61 275 12.0 17.0 0.00 0.00 0.00 80 1019.4
20260902215904 61 264 13.0 15.0 0.00 0.00 0.00 84 1019.4
20260902212903 59 295 11.0 14.0 0.00 0.00 0.00 86 1019.5
20260902212404 59 304 9.0 13.0 0.00 0.00 0.00 86 1019.6
20260902210905 58 303 12.0 14.0 0.00 0.00 0.00 87 1019.5
20260902205404 57 297 11.0 13.0 0.00 0.00 0.00 90 1019.5
20260902204904 56 291 9.0 12.0 0.00 0.00 0.00 90 1019.5
20260902202904 54 299 4.0 6.0 0.00 0.00 0.00 92 1019.4
20260902200404 51 329 3.0 5.0 0.00 0.00 0.00 92 1019.4
20260902194904 50 321 3.0 5.0 0.00 0.00 0.00 92 1019.3
20260902194404 50 321 3.0 5.0 0.00 0.00 0.00 92 1019.3
20260902193404 49 319 5.0 5.0 0.00 0.00 0.00 92 1019.3
20260902191904 49 317 3.0 3.0 0.00 0.00 0.00 92 1019.3
20260902190406 50 291 2.0 3.0 0.00 0.00 0.00 92 1019.3
20260902185905 49 291 2.0 3.0 0.00 0.00 0.00 92 1019.3
20260902184905 49 249 1.0 3.0 0.00 0.00 0.00 92 1019.2
20260902183905 50 246 2.0 3.0 0.00 0.00 0.00 92 1019.0
20260902181905 48 265 3.0 5.0 0.00 0.00 0.00 92 1019.1
20260902181405 47 285 4.0 6.0 0.00 0.00 0.00 92 1019.0
20260902175905 47 294 4.0 6.0 0.00 0.00 0.00 91 1018.8
20260902175405 48 298 5.0 6.0 0.00 0.00 0.00 92 1018.7
20260902174906 48 303 5.0 7.0 0.00 0.00 0.00 92 1018.6
20260902174405 48 303 6.0 7.0 0.00 0.00 0.00 92 1018.7
20260902173905 48 300 6.0 7.0 0.00 0.00 0.00 92 1018.7
20260902173405 47 302 6.0 7.0 0.00 0.00 0.00 91 1018.6
20260902172905 47 311 5.0 6.0 0.00 0.00 0.00 91 1018.7
20260902172405 47 327 4.0 5.0 0.00 0.00 0.00 91 1018.7
20260902165405 49 329 2.0 5.0 0.00 0.00 0.00 91 1018.6
20260902164905 49 329 3.0 5.0 0.00 0.00 0.00 91 1018.5
20260902164405 49 328 3.0 5.0 0.00 0.00 0.00 91 1018.6
20260902163905 49 324 1.0 3.0 0.00 0.00 0.00 91 1018.5
20260902160905 51 333 6.0 6.0 0.00 0.00 0.00 91 1018.4
20260902155905 51 330 5.0 7.0 0.00 0.00 0.00 91 1018.4
20260902155405 51 329 6.0 7.0 0.00 0.00 0.00 91 1018.6
20260902154405 51 329 7.0 9.0 0.00 0.00 0.00 90 1018.7
20260902152905 52 323 6.0 7.0 0.00 0.00 0.00 91 1018.7
20260902152405 52 316 5.0 6.0 0.00 0.00 0.00 91 1018.7
20260902151905 52 315 5.0 6.0 0.00 0.00 0.00 91 1018.7
20260902151405 53 315 5.0 7.0 0.00 0.00 0.00 91 1018.8
20260902145904 53 317 6.0 7.0 0.00 0.00 0.00 91 1019.1
20260902144405 53 321 6.0 7.0 0.00 0.00 0.00 90 1019.3
20260902143904 53 319 6.0 7.0 0.00 0.00 0.00 90 1019.3
20260902142405 53 318 6.0 7.0 0.00 0.00 0.00 90 1019.3
20260902141905 53 314 5.0 6.0 0.00 0.00 0.00 90 1019.3
20260902140406 53 292 6.0 6.0 0.00 0.00 0.00 91 1019.3
20260902135405 53 293 5.0 6.0 0.00 0.00 0.00 91 1019.4
20260902134405 53 296 5.0 6.0 0.00 0.00 0.00 91 1019.3
20260902133905 53 301 5.0 6.0 0.00 0.00 0.00 91 1019.3
20260902133405 53 304 5.0 6.0 0.00 0.00 0.00 91 1019.3
20260902132904 53 304 5.0 6.0 0.00 0.00 0.00 91 1019.2
20260902131404 53 306 5.0 6.0 0.00 0.00 0.00 91 1019.2
20260902130905 53 306 5.0 6.0 0.00 0.00 0.00 91 1019.2
20260902125404 54 305 5.0 6.0 0.00 0.00 0.00 91 1019.1
20260902124405 54 281 5.0 5.0 0.00 0.00 0.00 91 1019.0
20260902122904 53 279 5.0 7.0 0.00 0.00 0.00 91 1019.0
20260902115905 53 303 7.0 9.0 0.00 0.00 0.00 92 1018.8
20260902115405 53 308 7.0 9.0 0.00 0.00 0.00 91 1018.9
20260902114905 53 306 5.0 7.0 0.00 0.00 0.00 91 1018.8
20260902113405 53 315 6.0 6.0 0.00 0.00 0.00 91 1018.9
20260902112904 53 300 3.0 3.0 0.00 0.00 0.00 91 1018.8
20260902111905 53 300 3.0 5.0 0.00 0.00 0.00 91 1018.8
20260902111405 53 300 3.0 5.0 0.00 0.00 0.00 91 1018.8
20260902110905 53 300 4.0 5.0 0.00 0.00 0.00 91 1018.9
20260902105904 53 300 3.0 5.0 0.00 0.00 0.00 91 1018.9
20260902105405 53 300 3.0 3.0 0.00 0.00 0.00 91 1018.9
20260902103905 53 300 6.0 7.0 0.00 0.00 0.00 91 1019.0
20260902102906 53 290 4.0 5.0 0.00 0.00 0.00 91 1019.0
20260902102404 52 290 5.0 6.0 0.00 0.00 0.00 91 1019.0
20260902101905 52 290 5.0 6.0 0.00 0.00 0.00 91 1018.9
20260902100905 53 289 3.0 5.0 0.00 0.00 0.00 90 1018.8
20260902100405 53 289 3.0 3.0 0.00 0.00 0.00 90 1018.8
20260902095405 53 288 3.0 5.0 0.00 0.00 0.00 90 1018.8
20260902094905 53 288 3.0 5.0 0.00 0.00 0.00 90 1018.7
20260902092405 52 279 5.0 5.0 0.00 0.00 0.00 90 1018.6
20260902090904 52 277 5.0 7.0 0.00 0.00 0.00 90 1018.7
20260902090405 51 280 6.0 7.0 0.00 0.00 0.00 90 1018.7